Tracking 19484 objects as of 20-Jan-2019
HD Live streaming from Space Station
objects crossing your sky now

GLOBALSTAR M080

Track GLOBALSTAR M080 now!
10-day predictions
GLOBALSTAR M080 is classified as:


NORAD ID: 38041
Int'l Code: 2011-080B
Perigee: 1,420.7 km
Apogee: 1,420.8 km
Inclination: 52.0 °
Period: 114.1 minutes
Semi major axis: 7791 km
RCS: 4.9224 m2 (large)
Launch date: December 28, 2011
Source: Globalstar (GLOB)
Launch site: TYURATAM MISSILE AND SPACE COMPLEX (TTMTR)
aabbcc
Your satellite tracking list
Your tracking list is empty




NASA's NSSDC Master Catalog

Two Line Element Set (TLE):
1 38041U 11080B   19019.83460392 -.00000107  00000-0 -17560-4 0  9994
2 38041  52.0077 334.1762 0000060 338.5835  58.0781 12.62267709327379
Source of the keplerian elements: AFSPC